Redwood Falls, MN

6:56 PM CDT on August 20, 2017 (GMT -0500)
Redwood Falls Municipal

Weather History for KRWF - January, 2014

Change the Weather History Date:

Tuesday, January 14, 2014

  Actual Average Record
Temperature  
Mean Temperature 22 °F -  
Max Temperature 34 °F 23 °F 47 °F (1944)
Min Temperature 10 °F 3 °F -23 °F (1972)
Degree Days  
Heating Degree Days 43    
Moisture  
Dew Point 15 °F    
Average Humidity 78    
Maximum Humidity 93    
Minimum Humidity 67    
Precipitation  
Precipitation 0.02 in - - ()
Sea Level Pressure  
Sea Level Pressure 29.88 in    
Wind  
Wind Speed 17 mph (NW)    
Max Wind Speed 33 mph    
Max Gust Speed 47 mph    
Visibility 5 miles    
Events Rain , Snow    
Averages and records for this station are not official NWS values.
T = Trace of Precipitation, MM = Missing Value Source: NWS Daily Summary

Daily Weather History Graph

Daily Weather History Graph

Search for Another Location

Airport or City:

Trip Planner

Search our weather history database for the weather conditions in past years. The results will help you decide how hot, cold, wet, or windy it might be!

Date:

Astronomy

Jan. 14, 2014 Rise Set
Actual Time 7:54 AM CST 5:05 PM CST
Civil Twilight 7:21 AM CST 5:37 PM CST
Nautical Twilight 6:45 AM CST 6:13 PM CST
Astronomical Twilight 6:10 AM CST 6:48 PM CST
Moon 4:12 PM CST (1/14) 6:28 AM CST (1/14)
Length of Visible Light 10h 16m
Length of Day
9h 11m
Waxing Gibbous, 98% of the Moon is Illuminated
Jan 14
Waxing Gibbous
Jan 15
Full
Jan 23
Last Quarter
Jan 30
New
Feb 6
First Quarter

Hourly Weather History & Observations

Time (CST) Temp. Windchill Dew Point Humidity Pressure Visibility Wind Dir Wind Speed Gust Speed Precip Events Conditions
12:15 AM 30.2 °F 26.7 °F 26.6 °F 86% 29.47 in 10.0 mi SSW 3.5 mph - 0.01 in Rain Light Freezing Rain
12:36 AM 32.0 °F 25.6 °F 28.4 °F 87% 29.46 in 7.0 mi SW 6.9 mph - 0.01 in Snow Light Snow
12:53 AM 33.1 °F 25.5 °F 28.9 °F 85% 29.51 in 4.0 mi West 9.2 mph - 0.01 in Snow Light Snow
1:13 AM 33.8 °F 25.8 °F 30.2 °F 87% 29.47 in 2.5 mi West 10.4 mph - 0.00 in Snow Light Snow
1:15 AM 33.8 °F 24.8 °F 30.2 °F 87% 29.47 in 3.0 mi West 12.7 mph - 0.00 in Snow Light Snow
1:43 AM 33.8 °F 22.5 °F 32.0 °F 93% 29.49 in 6.0 mi WNW 19.6 mph - 0.00 in Snow Light Snow
1:53 AM 34.0 °F 22.4 °F 32.0 °F 92% 29.54 in 5.0 mi WNW 20.7 mph 27.6 mph 0.00 in Snow Light Snow
2:46 AM 33.8 °F 21.6 °F 30.2 °F 87% 29.54 in 2.5 mi NW 23.0 mph 38.0 mph 0.01 in Snow Light Snow
2:53 AM 32.0 °F 18.4 °F 28.9 °F 88% 29.58 in 3.0 mi NW 26.5 mph 38.0 mph 0.01 in Snow Light Snow
3:09 AM 32.0 °F 17.9 °F 26.6 °F 80% 29.56 in 7.0 mi NW 28.8 mph 40.3 mph 0.00 in   Overcast
3:51 AM 26.6 °F 11.4 °F 21.2 °F 80% 29.61 in 7.0 mi NW 25.3 mph 43.7 mph 0.00 in Snow Light Snow
3:53 AM 27.0 °F 11.9 °F 21.9 °F 81% 29.64 in 6.0 mi NW 25.3 mph 43.7 mph 0.00 in Snow Light Snow
4:12 AM 24.8 °F 8.1 °F 21.2 °F 86% 29.63 in 4.0 mi NW 28.8 mph 44.9 mph 0.00 in Snow Light Snow
4:53 AM 25.0 °F 8.6 °F 19.9 °F 81% 29.70 in 7.0 mi NW 27.6 mph 39.1 mph 0.00 in Snow Light Snow
5:53 AM 23.0 °F 8.7 °F 19.0 °F 85% 29.77 in 3.0 mi NW 18.4 mph 33.4 mph 0.00 in Snow Light Snow
6:49 AM 21.2 °F 2.2 °F 17.6 °F 86% 29.77 in 7.0 mi NW 33.4 mph 47.2 mph 0.00 in   Overcast
6:53 AM 21.9 °F 4.8 °F 17.1 °F 82% 29.81 in 7.0 mi NNW 26.5 mph 47.2 mph 0.00 in Snow Light Snow
7:53 AM 21.9 °F 10.4 °F 17.1 °F 82% 29.85 in 3.0 mi NNW 11.5 mph 29.9 mph 0.00 in Snow Light Snow
8:04 AM 21.2 °F 6.4 °F 15.8 °F 80% 29.81 in 2.5 mi NNW 18.4 mph 29.9 mph 0.00 in Snow Light Snow
8:17 AM 21.2 °F 6.0 °F 17.6 °F 86% 29.82 in 1.0 mi NW 19.6 mph 27.6 mph 0.00 in Snow Light Snow
8:53 AM 21.0 °F 6.6 °F 15.1 °F 78% 29.89 in 1.8 mi NW 17.3 mph 33.4 mph 0.00 in Snow Light Snow
9:05 AM 19.4 °F 2.8 °F 15.8 °F 86% 29.85 in 2.5 mi NW 21.9 mph 36.8 mph 0.00 in Snow Light Snow
9:12 AM 19.4 °F 3.2 °F 15.8 °F 86% 29.86 in 4.0 mi NNW 20.7 mph 36.8 mph 0.00 in Snow Light Snow
9:30 AM 19.4 °F 1.8 °F 14.0 °F 80% 29.87 in 1.8 mi NW 25.3 mph 35.7 mph 0.00 in Snow Light Snow
9:41 AM 19.4 °F 4.1 °F 14.0 °F 80% 29.88 in 3.0 mi NW 18.4 mph 27.6 mph 0.00 in Snow Light Snow
9:53 AM 19.9 °F 2.8 °F 14.0 °F 78% 29.94 in 4.0 mi NW 24.2 mph 33.4 mph 0.00 in Snow Light Snow
10:48 AM 19.4 °F 2.5 °F 12.2 °F 74% 29.93 in 2.5 mi NNW 23.0 mph 33.4 mph 0.00 in Snow Light Snow
10:53 AM 19.9 °F 4.8 °F 12.9 °F 74% 29.98 in 3.0 mi NW 18.4 mph 31.1 mph 0.00 in Snow Light Snow
11:01 AM 19.4 °F 2.1 °F 12.2 °F 74% 29.94 in 2.0 mi NNW 24.2 mph 36.8 mph 0.00 in Snow Light Snow
11:18 AM 19.4 °F 2.8 °F 12.2 °F 74% 29.95 in 4.0 mi NW 21.9 mph 31.1 mph 0.00 in Snow Light Snow
11:53 AM 18.0 °F 1.7 °F 12.0 °F 78% 30.01 in 3.0 mi NNW 19.6 mph 28.8 mph 0.00 in Snow Light Snow
12:02 PM 17.6 °F 0.5 °F 12.2 °F 79% 29.96 in 2.0 mi NNW 21.9 mph 31.1 mph 0.00 in Snow Light Snow
12:20 PM 17.6 °F 1.7 °F 12.2 °F 79% 29.97 in 1.2 mi NNW 18.4 mph 32.2 mph 0.00 in Snow Light Snow
12:46 PM 17.6 °F 1.7 °F 10.4 °F 73% 29.98 in 3.0 mi NNW 18.4 mph 29.9 mph 0.00 in Snow Light Snow
12:53 PM 18.0 °F 1.3 °F 10.9 °F 74% 30.02 in 6.0 mi NW 20.7 mph 26.5 mph 0.00 in   Haze
1:33 PM 19.4 °F 3.6 °F 10.4 °F 68% 30.00 in 9.0 mi NW 19.6 mph 27.6 mph N/A   Overcast
1:49 PM 17.6 °F 0.1 °F 10.4 °F 73% 29.99 in 7.0 mi NW 23.0 mph 40.3 mph 0.00 in Snow Light Snow
1:53 PM 18.0 °F 0.6 °F 10.0 °F 71% 30.05 in 6.0 mi NW 23.0 mph 40.3 mph 0.00 in Snow Light Snow
2:53 PM 18.0 °F 1.7 °F 9.0 °F 68% 30.08 in 8.0 mi NW 19.6 mph 32.2 mph 0.00 in   Mostly Cloudy
3:28 PM 15.8 °F -1.5 °F 8.6 °F 73% 30.06 in 9.0 mi NW 20.7 mph 29.9 mph 0.00 in   Overcast
3:53 PM 16.0 °F -1.3 °F 8.1 °F 71% 30.13 in 6.0 mi NNW 20.7 mph 34.5 mph 0.00 in Snow Light Snow
4:02 PM 15.8 °F -1.5 °F 8.6 °F 73% 30.09 in 2.0 mi NNW 20.7 mph 32.2 mph 0.00 in Snow Light Snow
4:20 PM 15.8 °F -0.6 °F 8.6 °F 73% 30.10 in 4.0 mi NNW 18.4 mph 28.8 mph 0.00 in Snow Light Snow
4:53 PM 15.1 °F -1.6 °F 6.1 °F 68% 30.16 in 10.0 mi NNW 18.4 mph 25.3 mph 0.00 in   Overcast
5:53 PM 14.0 °F -2.0 °F 5.0 °F 67% 30.19 in 10.0 mi NNW 16.1 mph 26.5 mph N/A   Overcast
6:53 PM 12.0 °F -3.4 °F 3.9 °F 70% 30.21 in 10.0 mi NW 13.8 mph 21.9 mph N/A   Overcast
7:53 PM 12.0 °F -4.0 °F 3.9 °F 70% 30.23 in 10.0 mi NW 15.0 mph 25.3 mph N/A   Mostly Cloudy
8:53 PM 10.9 °F -5.4 °F 3.9 °F 73% 30.23 in 10.0 mi NW 15.0 mph 20.7 mph N/A   Scattered Clouds
9:25 PM 12.2 °F -1.0 °F 5.0 °F 73% 30.17 in 10.0 mi NNW 10.4 mph 18.4 mph N/A   Mostly Cloudy
9:53 PM 12.0 °F -4.0 °F 5.0 °F 73% 30.24 in 10.0 mi NNW 15.0 mph - N/A   Overcast
10:53 PM 12.0 °F -2.0 °F 3.9 °F 70% 30.24 in 8.0 mi NNW 11.5 mph 23.0 mph 0.00 in   Overcast
11:53 PM 10.9 °F -4.7 °F 3.9 °F 73% 30.24 in 8.0 mi NNW 13.8 mph 21.9 mph N/A   Overcast